Location: Corralito
(14.1667°N, 87.1833°W)
Time: 03:19:11
(UTC+00:00)

Nadezhda 4 Rocket - Pass Details

Date: 07 June 2020
Orbit: 950 x 992 km, 82.9° (Epoch: 04 July)

Event Time Altitude Azimuth Distance (km) Brightness Sun altitude
Exits shadow 01:52:58 41° 115° (ESE) 1,348 4.2 -21.7°
Maximum altitude 01:53:53 44° 92° (E) 1,294 4.2 -21.9°
Drops below altitude 10° 01:59:38 10° 21° (NNE) 2,673 6.4 -23.1°
Sets 02:02:13 0° 15° (NNE) 3,616 7.2 -23.6°
